EW0811 Weather Reports


time (UTC)temp
C
wind
direction
speed
KPH
gust
KPH
rain 1hr
cm
rain 24hr
cm
rain mn
cm
humidity
%
barometer
mb
20260507124615 4 0.0 1.6 0.00 0.41 0.00 92 1012.8
20260507123759 4 0.0 1.6 0.00 0.41 0.00 93 1012.8
20260507122615 4 23 1.6 1.6 0.00 0.41 0.00 96 1012.8
20260507121615 4 23 1.6 3.2 0.00 0.41 0.00 96 1012.8
20260507120617 4 0.0 1.6 0.00 0.41 0.00 97 1012.9
20260507115615 4 0.0 0.0 0.00 0.48 0.00 97 1012.9
20260507114617 4 0.0 0.0 0.00 0.48 0.00 97 1013.0
20260507113615 4 0.0 0.0 0.00 0.48 0.00 98 1013.0
20260507112615 4 0.0 3.2 0.00 0.48 0.00 98 1012.8
20260507111617 3 338 1.6 3.2 0.00 0.48 0.00 99 1012.8
20260507110615 3 0.0 0.0 0.00 0.48 0.00 98 1012.6
20260507105615 3 0.0 1.6 0.00 0.56 0.00 98 1012.4
20260507104635 3 0.0 1.6 0.00 0.56 0.00 98 1012.3
20260507103615 3 248 1.6 3.2 0.00 0.56 0.00 97 1012.1
20260507102635 3 0.0 0.0 0.00 0.56 0.00 98 1012.0
20260507101617 3 0.0 1.6 0.00 0.56 0.00 98 1011.9
20260507100615 3 0.0 0.0 0.00 0.56 0.00 97 1012.2
20260507095615 3 0.0 0.0 0.00 0.69 0.00 97 1012.3
20260507094617 3 0.0 0.0 0.00 0.69 0.00 97 1012.3
20260507093615 3 0.0 0.0 0.00 0.69 0.00 98 1012.2
20260507092615 3 0.0 0.0 0.00 0.69 0.00 98 1012.2
20260507091615 3 0.0 0.0 0.00 0.69 0.00 98 1012.2
20260507090635 3 0.0 0.0 0.00 0.69 0.00 98 1012.2
20260507085615 3 0.0 0.0 0.00 0.84 0.00 98 1012.3
20260507084615 3 0.0 0.0 0.00 0.84 0.00 98 1012.2
20260507083615 3 0.0 0.0 0.00 0.84 0.00 98 1012.3
20260507082615 3 0.0 0.0 0.00 0.84 0.00 97 1012.4
20260507081615 3 0.0 0.0 0.00 0.84 0.00 98 1012.4
20260507080617 3 0.0 0.0 0.00 0.84 0.00 97 1012.4
20260507075615 3 0.0 0.0 0.00 1.04 0.00 98 1012.1
20260507074615 3 0.0 0.0 0.00 1.04 0.00 98 1012.1
20260507073615 3 0.0 1.6 0.00 1.04 0.00 98 1012.0
20260507072615 3 0.0 0.0 0.00 1.04 0.00 98 1012.2
20260507071615 3 0.0 0.0 0.00 1.04 0.00 98 1012.2
20260507070657 3 0.0 0.0 0.00 1.04 0.00 97 1012.2
20260507065615 3 0.0 1.6 0.00 1.14 0.00 96 1012.2
20260507064635 3 0.0 0.0 0.00 1.14 0.00 96 1012.4
20260507063615 3 0.0 0.0 0.00 1.14 0.00 96 1012.4
20260507062615 3 0.0 0.0 0.00 1.14 0.00 96 1012.5
20260507061615 4 0.0 0.0 0.00 1.14 0.00 97 1012.5
20260507060615 4 0.0 0.0 0.00 1.14 0.00 97 1012.5
20260507055636 4 0.0 0.0 0.00 1.30 0.00 97 1012.5
20260507054617 4 0.0 0.0 0.00 1.30 0.00 97 1012.6
20260507053617 4 0.0 0.0 0.00 1.30 0.00 97 1012.5
20260507052617 4 0.0 0.0 0.00 1.30 0.00 97 1012.4
20260507051617 5 0.0 1.6 0.00 1.30 0.00 97 1012.8
20260507050618 4 0.0 0.0 0.00 1.30 0.00 97 1012.7
20260507045637 5 248 1.6 1.6 0.00 1.35 0.00 97 1012.8
20260507044617 5 0.0 0.0 0.00 1.35 0.00 97 1012.9
20260507043617 5 0.0 1.6 0.00 1.35 0.00 97 1013.0
20260507042617 5 0.0 0.0 0.00 1.35 0.00 97 1013.0
20260507041617 5 0.0 0.0 0.00 1.35 0.00 97 1012.9
20260507040618 5 0.0 0.0 0.00 1.35 0.00 96 1012.8
20260507035638 5 0.0 0.0 0.00 1.45 1.35 97 1012.8
20260507034618 5 0.0 0.0 0.00 1.45 1.35 97 1012.8
20260507033617 5 0.0 0.0 0.00 1.45 1.35 97 1012.8
20260507032617 5 0.0 1.6 0.00 1.45 1.35 97 1012.8
20260507031657 5 0.0 0.0 0.00 1.45 1.35 96 1012.8
20260507030617 5 0.0 1.6 0.00 1.45 1.35 96 1012.8
20260507025616 5 0.0 0.0 0.00 1.60 1.35 97 1012.8
20260507024618 5 0.0 0.0 0.00 1.60 1.35 97 1012.7
20260507023640 5 248 1.6 3.2 0.00 1.60 1.35 97 1012.7
20260507022616 5 248 1.6 3.2 0.00 1.60 1.35 97 1012.6
20260507021617 5 248 1.6 3.2 0.00 1.60 1.35 97 1012.7
20260507020616 5 203 1.6 3.2 0.00 1.60 1.35 97 1012.8
20260507015617 5 203 1.6 3.2 0.00 1.70 1.35 97 1012.9
20260507014618 5 203 1.6 3.2 0.00 1.70 1.35 96 1012.9
20260507013616 5 203 1.6 3.2 0.00 1.70 1.35 96 1012.8
20260507012616 5 0.0 0.0 0.00 1.70 1.35 96 1012.6
20260507011617 5 203 1.6 3.2 0.00 1.70 1.35 96 1012.5
20260507010617 5 0.0 0.0 0.00 1.70 1.35 96 1012.4
20260507005616 6 0.0 0.0 0.00 2.06 1.35 96 1012.3
20260507004617 6 0.0 1.6 0.00 2.06 1.35 96 1012.2
20260507003638 6 0.0 1.6 0.00 2.06 1.35 96 1012.2
20260507002617 6 0.0 1.6 0.00 2.06 1.35 96 1012.1
20260507001616 6 0.0 1.6 0.00 2.06 1.35 95 1012.1
20260507000616 6 203 1.6 1.6 0.00 2.06 1.35 95 1012.1
20260506235616 6 0.0 0.0 0.00 2.24 1.35 95 1011.9
20260506234616 6 203 1.6 1.6 0.00 2.24 1.35 96 1011.9
20260506233618 6 293 1.6 4.8 0.00 2.24 1.35 96 1012.0
20260506232616 6 315 1.6 1.6 0.00 2.24 1.35 96 1011.9
20260506231616 6 0 4.8 8.0 0.00 2.24 1.35 96 1011.7
20260506230616 6 0 4.8 8.0 0.00 2.24 1.35 96 1011.6
20260506225616 6 338 3.2 6.4 0.03 2.54 1.35 96 1011.4
20260506224618 6 338 1.6 8.0 0.03 2.54 1.35 95 1011.3
20260506223616 6 338 3.2 4.8 0.03 2.54 1.35 96 1011.2
20260506222616 6 338 1.6 4.8 0.03 2.54 1.35 95 1011.2
20260506221618 6 293 3.2 6.4 0.05 2.54 1.35 95 1010.9
20260506220616 6 338 3.2 6.4 0.08 2.54 1.35 94 1011.2
20260506215616 6 315 3.2 6.4 0.10 2.84 1.32 93 1011.0
20260506214616 7 293 3.2 6.4 0.18 2.84 1.32 93 1010.7
20260506213616 7 338 3.2 6.4 0.23 2.84 1.32 93 1010.5
20260506212636 8 338 4.8 6.4 0.28 2.84 1.32 91 1010.2
20260506211636 8 338 3.2 9.7 0.25 2.82 1.30 92 1009.9
20260506210618 10 0 6.4 12.9 0.23 2.79 1.27 92 1009.8
20260506205638 10 0.0 0.0 0.18 2.79 1.22 92 1009.6
20260506204638 10 0.0 0.0 0.10 2.72 1.14 91 1009.6
20260506203638 10 0.0 1.6 0.05 2.67 1.09 88 1009.6
20260506202636 10 158 1.6 3.2 0.00 2.62 1.04 85 1009.4
20260506201636 11 158 1.6 1.6 0.00 2.62 1.04 84 1009.5
20260506200616 11 113 4.8 8.0 0.00 2.62 1.04 81 1009.5
20260506195616 11 158 4.8 6.4 0.00 2.62 1.04 83 1009.5
20260506194636 11 113 3.2 3.2 0.00 2.62 1.04 85 1009.7
20260506193636 11 113 1.6 3.2 0.00 2.62 1.04 84 1009.6
20260506192616 11 0.0 1.6 0.00 2.62 1.04 82 1009.6
20260506191616 11 0.0 1.6 0.00 2.62 1.04 84 1009.7
20260506190616 11 0.0 0.0 0.00 2.62 1.04 81 1009.6
20260506185616 11 68 3.2 4.8 0.00 2.62 1.04 81 1009.6
20260506184638 11 90 4.8 8.0 0.00 2.62 1.04 83 1009.6
20260506183616 11 135 4.8 8.0 0.00 2.62 1.04 85 1009.6
20260506182616 11 113 1.6 6.4 0.00 2.62 1.04 86 1009.9
20260506181617 10 90 1.6 3.2 0.00 2.62 1.04 87 1009.8
20260506180616 10 45 1.6 3.2 0.00 2.62 1.04 89 1009.9
20260506175656 10 0.0 1.6 0.00 2.62 1.04 88 1009.8
20260506174617 10 0.0 1.6 0.00 2.62 1.04 88 1010.0
20260506173616 10 45 1.6 3.2 0.00 2.62 1.04 88 1010.1
20260506172658 10 0.0 0.0 0.00 2.62 1.04 86 1009.8
20260506171616 10 45 1.6 4.8 0.00 2.62 1.04 90 1009.8
20260506170616 9 45 3.2 4.8 0.00 2.62 1.04 91 1009.8
20260506165617 9 45 1.6 3.2 0.00 2.62 1.04 90 1009.7
20260506164616 9 90 3.2 4.8 0.00 2.62 1.04 91 1009.7
20260506163616 9 68 1.6 1.6 0.00 2.62 1.04 91 1009.7
20260506162616 9 68 3.2 3.2 0.00 2.62 1.04 91 1009.9
20260506161616 9 68 3.2 4.8 0.00 2.62 1.04 91 1009.8
20260506160620 9 45 1.6 4.8 0.00 2.62 1.04 93 1009.7
20260506155616 9 68 3.2 8.0 0.00 2.62 1.04 91 1009.6
20260506154616 9 45 3.2 6.4 0.00 2.62 1.04 93 1009.7
20260506153616 9 90 3.2 3.2 0.00 2.62 1.04 94 1009.7
20260506152616 9 68 3.2 6.4 0.03 2.62 1.04 95 1009.4
20260506151637 8 68 4.8 8.0 0.03 2.62 1.04 95 1009.4
20260506150616 8 45 3.2 3.2 0.05 2.62 1.04 96 1009.5
20260506145635 8 45 3.2 4.8 0.05 2.62 1.04 97 1009.4
20260506144617 8 68 3.2 6.4 0.05 2.62 1.04 97 1009.3
20260506143636 8 45 3.2 6.4 0.05 2.62 1.04 96 1009.3
20260506142616 8 0.0 1.6 0.03 2.59 1.02 96 1009.5
20260506141615 7 45 1.6 1.6 0.03 2.59 1.02 96 1009.4
20260506140656 7 45 3.2 4.8 0.00 2.57 0.99 97 1009.3
20260506135616 7 68 1.6 3.2 0.00 2.57 0.99 96 1009.2
20260506134616 7 68 3.2 4.8 0.03 2.57 0.99 97 1009.2
20260506133615 7 68 1.6 6.4 0.03 2.57 0.99 97 1009.0
20260506132615 7 0.0 0.0 0.03 2.57 0.99 97 1009.0
20260506131615 7 68 1.6 3.2 0.05 2.57 0.99 97 1008.8
20260506130617 7 23 3.2 4.8 0.05 2.57 0.99 97 1009.0
20260506125617 7 0.0 3.2 0.05 2.57 0.99 97 1008.8